Theta_e
349 348 348 348 347 347 347 349 349 349 350 350 351 351 351 351 351 351 349 349 349 344 343 343 345 342 349 347 349 350 350 350 350 350 350 350 350 350 350 349 349 349 348 348 347 348 348 344 341 340 339 338 336 328 328 328 329 330 329 329 331 330
347 347 347 347 347 347 347 347 343 343 347 347 349 350 348 348 351 346 349 346 342 345 341 339 341 348 340 346 347 350 350 350 350 350 350 350 350 350 350 349 349 349 348 348 346 338 341 346 340 340 339 337 329 328 328 329 328 329 329 329 333 332
346 346 346 346 346 346 345 344 343 343 345 349 347 348 346 348 345 344 344 342 344 341 339 340 339 344 343 346 347 349 350 350 350 350 350 350 350 350 350 350 349 348 348 348 340 336 336 338 337 339 337 329 327 328 328 328 328 328 328 330 327 334
345 345 344 344 345 346 345 343 342 343 342 343 345 346 345 345 343 343 342 341 341 340 339 339 348 348 348 342 344 349 349 349 350 349 350 349 350 350 350 349 349 349 347 344 338 337 339 339 333 329 327 327 327 327 328 328 328 328 329 332 329 334
344 344 343 343 344 344 343 343 342 342 341 343 342 343 344 343 342 341 341 341 340 339 339 338 338 340 337 335 335 336 340 342 341 342 348 339 340 345 343 342 343 343 339 340 338 337 339 337 331 328 327 327 327 327 328 328 328 328 328 328 331 336
343 343 342 342 342 344 343 342 342 341 341 342 342 342 342 341 340 341 340 340 340 338 337 338 335 337 337 334 334 333 334 334 337 341 341 336 338 340 338 340 341 341 340 339 339 338 341 340 331 327 326 327 327 327 327 327 328 328 328 328 332 336
342 342 341 342 342 342 340 341 341 342 340 341 341 340 340 339 339 340 340 340 339 336 336 337 336 336 335 335 334 334 332 332 335 337 337 336 339 340 338 338 338 339 338 340 339 338 338 339 330 327 327 327 327 327 327 327 327 327 328 329 332 335
342 342 341 342 341 341 339 340 341 344 342 342 341 339 338 338 339 339 340 339 340 337 336 337 336 336 335 334 334 334 333 331 332 330 331 331 334 335 336 337 337 338 340 340 338 338 339 339 331 328 327 326 327 327 327 327 327 327 327 327 330 334
341 341 341 342 340 340 340 340 341 342 341 344 340 339 338 337 337 338 339 339 340 337 335 337 336 337 335 334 333 334 332 332 331 331 329 329 331 332 335 336 337 338 336 337 336 336 337 338 330 328 327 327 327 326 326 326 327 327 327 326 326 330
341 341 342 341 340 340 340 339 340 341 341 343 340 339 338 337 337 337 337 337 340 338 336 337 336 336 335 333 332 333 333 332 332 330 328 328 330 329 332 332 335 337 338 336 335 336 336 336 331 329 327 326 326 326 326 326 327 327 327 326 327 329
342 342 342 340 340 340 340 340 341 341 340 341 341 340 339 337 336 336 337 337 338 340 338 337 337 336 335 334 333 333 332 332 332 331 331 328 329 330 327 330 334 335 337 335 334 335 335 335 332 328 328 326 325 325 326 327 328 327 327 326 326 327
340 341 342 340 340 340 339 341 341 341 340 340 341 340 339 338 337 336 337 336 337 339 340 337 337 336 336 334 333 333 332 332 332 333 332 330 327 329 327 326 330 334 337 335 334 335 335 334 330 328 326 326 325 325 326 327 327 327 327 326 326 327
338 339 340 340 340 340 339 340 341 341 341 341 341 340 339 338 338 337 337 336 337 339 340 338 337 337 338 334 333 332 331 332 333 333 332 332 328 326 328 326 326 331 335 335 334 333 336 333 330 328 327 326 325 325 325 326 326 327 326 325 325 325
336 336 338 340 340 339 338 339 342 341 341 340 340 340 340 339 339 339 337 337 338 339 340 338 337 336 337 334 333 332 331 331 332 332 333 332 328 324 326 326 325 330 337 334 334 334 333 332 331 330 327 326 325 325 325 325 326 326 325 325 324 324
337 336 337 338 339 338 338 338 341 341 341 340 340 339 340 339 339 339 338 338 339 339 340 339 338 336 336 335 334 332 331 331 332 332 332 331 328 326 327 325 329 330 334 333 334 335 333 332 332 331 328 327 325 325 325 324 325 325 325 324 324 323
336 335 336 337 339 339 338 338 340 344 340 340 340 339 339 339 339 338 339 338 339 338 340 340 338 337 335 336 335 334 332 332 333 333 332 330 329 328 327 327 332 333 332 332 333 333 333 332 331 331 330 328 326 326 324 324 324 324 324 324 323 323
335 335 336 337 338 338 338 338 339 341 340 340 339 339 338 338 338 337 338 339 339 338 339 341 339 337 335 335 336 335 333 334 334 334 331 330 329 329 328 328 330 334 334 332 333 332 332 332 332 331 331 328 327 326 324 324 324 324 325 323 322 323
335 336 336 336 337 339 338 338 338 339 340 339 339 339 338 338 338 337 338 339 339 339 339 340 341 338 336 335 336 336 334 336 336 334 330 331 330 329 328 326 329 331 332 332 331 331 331 332 333 332 331 330 328 327 325 325 325 330 323 322 322 322
336 335 336 337 338 338 338 337 337 337 337 338 338 338 338 337 337 337 338 338 338 339 340 339 341 340 338 336 336 336 335 336 338 333 330 334 330 329 328 325 328 329 331 331 332 332 332 333 333 332 331 330 329 328 327 326 327 326 324 323 323 324
335 336 336 336 337 335 335 334 333 334 335 336 336 338 338 337 337 337 338 338 338 338 339 340 341 340 339 338 336 335 336 336 337 334 332 333 330 329 328 325 326 328 327 328 332 333 333 333 331 330 330 328 330 330 329 329 328 326 325 324 324 324
335 336 335 334 334 334 332 330 331 332 333 335 336 337 338 338 337 338 338 338 338 337 338 340 341 340 340 342 338 336 337 336 337 336 333 333 332 331 329 326 325 329 326 327 327 332 334 333 330 327 327 327 328 330 333 331 329 327 326 326 325 324
335 335 335 335 335 334 333 332 331 331 333 335 335 336 336 337 338 339 339 338 338 338 338 338 341 340 341 340 338 336 337 337 336 336 335 334 332 335 331 326 326 326 326 328 328 332 333 332 325 326 325 323 327 327 330 328 329 328 327 327 327 325
334 334 334 335 336 334 333 334 333 334 335 335 336 337 337 338 339 339 339 339 339 339 338 338 340 342 341 340 339 336 336 337 336 337 336 333 333 331 331 327 327 327 325 327 329 333 333 333 326 325 325 326 324 324 325 326 328 328 329 328 328 326
334 335 335 336 337 335 334 334 334 334 335 336 334 335 336 336 337 337 338 339 339 339 339 338 339 341 341 340 338 338 336 337 337 337 336 334 332 331 331 328 327 328 328 327 327 330 333 331 330 329 322 321 325 326 320 323 325 325 327 328 327 326
334 334 335 336 336 335 335 333 334 335 337 337 337 334 334 334 336 337 338 338 339 340 340 338 339 340 341 340 338 338 337 337 337 337 337 335 333 332 331 330 329 328 329 328 327 328 331 329 332 333 327 321 322 321 321 322 324 323 325 325 326 327
334 334 334 335 335 335 333 332 333 333 331 332 331 332 332 333 335 336 337 340 340 340 340 339 339 340 341 341 339 338 338 337 337 337 338 336 335 332 330 330 331 329 328 329 329 328 329 328 332 332 331 330 328 322 321 319 324 319 322 324 326 327
334 334 334 334 334 335 334 335 335 334 333 332 331 332 335 336 336 337 338 338 340 340 341 339 339 340 340 341 340 338 339 338 338 337 339 336 335 333 332 332 333 331 329 329 330 328 328 328 326 330 330 328 327 324 326 323 321 321 320 324 325 325
333 334 334 334 334 336 334 335 335 334 334 333 332 332 334 336 338 339 338 339 339 340 340 340 339 340 341 341 340 338 339 339 338 337 338 337 335 335 334 333 334 334 330 330 330 329 328 328 327 327 328 328 328 326 328 324 324 323 322 321 323 325
334 334 334 335 336 337 336 335 336 335 334 334 333 333 334 334 335 337 337 338 339 340 340 340 340 340 340 341 341 339 339 339 338 337 339 338 336 336 335 333 333 334 330 330 330 330 329 328 328 327 327 326 326 325 325 325 327 320 317 317 317 322
334 335 336 337 337 337 337 336 334 334 332 329 328 328 330 329 332 336 336 337 338 339 340 339 339 340 340 341 341 340 339 339 338 337 339 338 336 335 335 334 334 334 333 331 330 331 330 329 329 328 329 328 327 324 324 324 323 322 320 319 318 321
333 333 334 336 336 336 335 335 333 332 331 329 328 327 326 328 331 330 331 335 338 339 340 339 339 340 340 341 341 341 340 339 339 338 339 338 335 335 336 335 335 335 334 332 331 331 329 329 329 328 327 328 329 328 326 324 324 324 320 316 316 318
331 331 331 332 332 331 331 331 332 332 331 331 329 328 326 325 328 329 331 330 333 334 337 340 339 339 339 340 340 340 340 340 339 337 337 339 336 336 336 335 335 335 334 333 333 333 330 328 328 328 327 327 329 330 329 328 328 327 325 321 321 317
327 327 328 328 327 329 328 327 328 328 329 329 328 328 328 327 328 328 328 329 328 330 329 333 338 338 338 339 340 339 339 339 339 338 337 338 337 336 336 335 334 334 334 333 332 332 332 330 329 328 327 327 327 327 330 331 330 329 328 326 324 318
324 325 328 327 327 328 327 328 328 328 328 328 327 329 328 327 327 328 328 328 329 333 332 333 333 337 339 338 339 339 339 339 339 339 338 338 338 336 337 336 335 334 334 334 333 332 333 333 331 330 329 329 328 327 328 329 330 330 329 326 322 322
324 326 327 328 329 328 327 327 328 328 328 328 328 328 328 328 328 328 328 328 330 330 330 334 338 340 338 336 336 337 338 338 338 340 339 338 339 337 337 336 336 335 335 334 333 333 333 333 333 331 329 330 330 329 329 329 330 331 331 329 328 325
324 325 326 329 328 329 328 328 327 327 328 329 329 328 328 328 328 328 327 327 327 327 328 330 334 339 338 336 335 335 337 338 338 339 340 339 338 338 337 336 335 336 335 336 333 333 333 333 334 333 331 331 331 331 331 330 331 332 332 331 330 327
322 323 324 326 327 328 326 327 327 328 328 328 328 327 327 327 327 327 327 327 327 327 328 330 332 336 337 335 335 335 336 337 338 339 339 340 339 338 338 337 336 335 336 336 335 333 334 333 333 334 334 332 332 332 332 332 333 332 332 332 331 329
Wind_Speed
10 10 9 9 7 7 10 16 15 17 17 17 16 17 17 17 17 15 14 13 12 6 4 4 5 3 8 4 8 10 10 11 11 11 11 12 12 11 10 10 9 9 8 7 6 7 12 18 18 18 18 17 15 7 6 7 6 5 5 5 6 6
10 11 9 7 6 6 7 11 7 8 9 12 13 13 12 8 10 7 12 10 5 5 4 3 3 5 3 4 6 10 10 11 11 10 10 11 10 10 10 10 9 9 8 7 6 5 6 13 19 17 17 16 8 6 6 6 6 5 5 5 6 9
11 10 10 8 7 6 7 6 6 7 7 9 9 9 6 7 5 6 5 4 5 4 4 4 3 3 3 8 6 9 10 10 11 10 10 9 8 8 9 9 10 9 8 7 4 3 5 7 10 17 14 8 6 6 6 6 6 5 5 5 4 14
11 10 8 6 7 6 7 6 6 6 6 6 6 6 5 4 5 4 5 5 5 4 4 4 6 10 8 3 5 9 10 10 10 10 10 6 6 6 7 8 9 8 5 4 3 3 6 8 8 6 6 6 6 6 6 6 5 5 5 5 6 15
9 9 8 6 6 6 6 6 6 6 5 6 5 5 5 4 4 4 5 5 4 4 4 4 3 3 3 2 2 2 3 3 3 3 7 1 2 2 2 2 3 4 4 3 2 2 5 8 7 6 6 6 6 5 5 5 5 5 5 5 8 14
7 6 6 5 4 5 6 6 6 6 5 5 5 5 4 4 4 4 4 4 5 4 4 4 3 3 3 2 3 3 3 3 3 3 2 1 1 1 1 2 2 4 3 2 2 2 3 7 8 7 6 6 6 5 5 5 5 5 5 5 8 16
10 8 6 5 5 4 4 3 4 5 6 6 4 5 4 4 4 4 5 5 6 5 5 5 3 4 4 3 3 3 4 4 4 4 2 2 2 2 2 2 2 3 2 2 1 2 3 7 9 8 7 6 6 6 5 5 5 5 5 6 8 15
10 9 7 7 6 5 3 3 4 5 6 6 6 6 5 5 4 5 5 5 5 5 6 5 4 5 5 4 4 3 3 4 4 4 3 1 2 2 2 2 2 2 2 2 2 3 3 7 8 8 8 6 6 6 5 5 5 5 4 4 6 13
11 9 7 7 6 4 4 4 3 5 6 6 6 6 5 5 5 5 5 6 5 6 5 5 5 6 5 5 4 4 4 5 5 5 3 3 3 4 4 4 3 3 2 2 3 3 3 6 8 7 8 7 7 6 6 5 5 5 4 4 5 8
15 11 10 8 5 5 5 5 5 5 5 6 6 6 5 6 6 6 6 6 6 6 6 6 6 5 6 6 5 4 5 5 5 5 5 5 5 5 5 4 3 3 4 3 3 3 4 6 8 7 7 8 7 7 6 6 6 5 5 5 4 6
15 14 12 10 8 6 5 5 5 5 5 6 6 6 6 6 6 6 6 6 6 5 5 5 6 6 5 6 6 5 6 5 5 5 5 5 5 5 5 5 6 6 5 4 4 3 4 6 7 7 7 8 7 6 6 5 5 5 5 5 5 4
12 13 15 13 9 7 6 6 6 6 6 6 6 6 7 7 7 7 7 6 7 6 5 6 6 6 6 6 6 6 6 6 6 6 6 6 5 5 6 5 4 4 4 3 3 3 3 7 7 7 7 8 7 7 6 6 6 6 5 5 5 5
13 10 14 16 12 9 7 7 7 7 7 7 7 7 7 7 7 7 7 7 7 7 5 7 6 7 7 6 6 6 6 7 6 6 6 7 6 5 4 4 4 3 3 3 3 3 3 6 8 7 7 7 7 7 6 6 6 6 6 5 5 5
15 14 10 11 14 11 9 7 7 7 7 8 8 8 8 7 7 7 7 8 8 7 6 7 7 7 6 6 6 6 7 7 7 6 6 6 6 6 5 6 7 6 6 6 5 5 6 6 7 7 7 7 6 7 6 6 6 6 5 5 5 5
11 15 14 9 12 14 12 9 8 8 8 8 8 8 7 7 7 7 7 7 8 8 8 8 8 7 7 6 6 6 7 7 7 6 6 6 6 6 4 7 6 8 6 6 5 6 7 7 6 8 7 7 7 6 6 6 6 5 6 5 5 5
11 15 16 14 10 13 14 11 9 9 8 8 8 8 8 7 7 6 6 7 8 8 8 9 9 8 7 7 7 7 7 6 6 6 6 6 6 6 4 6 7 8 7 6 6 6 5 6 6 6 7 7 7 7 6 6 6 6 5 5 5 5
15 16 17 15 10 7 11 11 8 9 10 8 8 8 8 7 7 7 7 8 8 8 8 10 10 8 8 8 8 7 7 7 6 7 7 7 7 6 5 6 5 7 9 7 7 6 5 6 6 5 7 8 7 7 7 7 6 6 5 5 5 5
12 12 15 16 14 9 9 10 9 8 9 8 9 8 7 8 8 7 7 9 9 8 8 8 9 8 7 7 7 8 7 7 6 7 7 7 7 5 4 6 7 5 7 7 6 7 6 6 5 5 5 7 7 7 7 7 6 6 7 6 6 6
12 9 6 13 14 10 8 6 7 6 6 8 6 6 7 7 8 8 9 9 9 9 8 8 7 7 7 6 6 7 7 6 6 7 7 7 6 4 4 5 8 6 4 7 8 7 8 7 6 5 4 6 7 7 7 6 6 7 7 7 7 7
10 10 5 4 10 10 8 7 7 4 6 6 6 6 7 8 7 8 9 9 9 9 8 7 7 6 6 7 7 7 7 6 6 6 7 6 6 6 6 5 6 7 6 3 4 6 6 6 5 5 4 3 4 7 7 7 7 7 7 7 7 6
11 11 10 8 7 12 11 6 4 7 6 8 9 9 8 7 8 8 9 9 9 8 8 7 6 6 6 6 7 6 7 6 6 6 7 7 6 6 5 5 6 4 7 5 3 4 6 8 7 3 2 2 1 1 5 7 8 8 8 7 6 7
12 12 13 13 10 10 12 13 11 10 10 8 9 9 9 8 9 8 8 9 8 8 8 7 6 6 6 6 7 7 7 7 6 6 6 5 5 5 5 4 4 4 4 7 5 6 7 9 3 7 5 1 1 0 0 3 6 7 8 7 8 8
12 12 11 11 9 9 7 9 9 7 9 8 9 9 8 2 2 5 6 7 8 8 8 7 7 7 6 6 6 7 7 6 6 6 6 6 6 6 6 6 6 6 4 2 3 6 9 9 7 4 3 5 2 3 3 2 3 4 6 7 7 8
13 13 12 11 11 10 14 15 13 12 11 8 7 3 2 3 4 4 7 8 8 8 8 8 8 7 7 6 6 6 6 6 6 6 7 7 7 8 6 6 6 5 5 5 3 7 7 6 7 10 4 2 2 3 2 8 6 4 4 6 7 8
12 13 12 13 11 5 8 8 7 4 4 6 4 5 3 4 6 6 5 7 10 9 9 9 9 9 8 8 6 5 6 6 6 6 7 8 8 9 8 6 6 5 6 7 5 5 6 3 8 10 8 4 1 4 6 1 4 5 2 3 5 7
10 11 11 11 10 8 9 12 11 9 8 8 7 7 8 10 10 10 11 11 9 9 10 10 9 9 9 8 7 6 5 6 6 7 8 8 7 6 7 7 7 7 6 5 7 5 8 3 6 7 7 9 7 5 5 3 6 6 2 3 3 4
11 10 10 10 9 8 8 10 14 13 12 12 11 9 9 9 9 9 8 4 7 8 8 9 9 9 9 9 8 6 6 6 7 7 7 7 7 8 7 8 6 6 7 6 6 8 10 8 2 5 5 3 4 1 7 7 7 3 4 4 3 4
8 9 9 9 10 10 9 6 8 10 10 10 10 9 7 3 3 4 5 6 5 6 8 9 10 10 10 10 9 8 7 7 7 7 7 8 9 7 6 5 6 8 6 7 8 9 8 6 10 6 4 4 2 1 5 3 4 6 4 7 6 3
8 8 9 11 11 10 9 8 5 6 7 5 3 2 4 2 2 2 4 3 4 5 7 9 9 10 10 10 10 10 9 8 8 8 8 8 8 8 9 8 8 8 8 8 8 7 7 8 7 7 5 5 1 1 3 2 4 2 3 3 3 6
8 8 9 10 10 10 11 10 8 6 8 6 4 4 4 4 6 5 5 4 3 4 6 8 9 9 9 10 10 10 10 10 10 9 9 9 9 9 9 9 10 10 10 10 7 7 10 8 7 5 7 6 5 1 1 2 2 4 1 1 4 7
6 6 6 9 10 10 8 8 9 9 9 8 7 6 4 3 3 3 7 8 6 5 6 8 7 8 9 9 10 10 10 10 10 10 10 10 10 10 10 10 10 10 10 11 8 7 7 7 8 7 6 7 8 7 7 5 4 5 2 2 1 3
7 5 3 3 4 3 4 5 6 8 10 9 10 9 9 7 5 3 1 5 9 8 6 6 6 7 9 9 9 10 10 10 10 10 11 10 9 9 9 8 8 9 9 10 8 7 7 7 8 8 7 7 8 7 6 6 5 6 6 4 5 3
6 7 7 7 7 4 2 3 4 6 5 6 6 5 5 7 8 6 5 5 3 5 7 10 7 7 8 9 8 8 9 10 10 10 10 9 9 9 9 8 9 9 10 10 9 8 8 9 9 9 9 6 6 7 8 7 6 7 6 4 5 4
4 4 5 4 4 5 3 4 4 6 6 6 6 6 6 6 5 7 8 6 1 3 8 10 8 8 4 3 6 6 5 6 6 6 8 9 8 8 9 9 9 10 10 9 8 9 9 8 7 8 7 7 8 7 7 7 7 7 7 6 5 7
4 6 8 9 9 9 8 7 6 5 7 7 8 8 7 7 8 8 8 8 5 2 6 6 7 7 7 7 6 5 4 5 6 6 6 8 7 8 8 8 8 9 9 8 9 9 9 9 9 9 8 9 8 8 8 8 7 8 7 9 9 7
4 6 4 5 6 9 9 8 8 8 8 8 7 6 6 6 7 8 9 10 9 6 9 9 8 6 7 9 10 10 8 8 7 7 7 8 8 7 7 8 8 8 10 7 9 10 9 9 10 10 10 9 7 9 8 7 7 8 8 8 8 7
4 6 7 3 5 4 3 5 9 11 10 8 7 9 9 11 11 8 7 9 11 13 14 12 10 7 7 7 8 9 10 10 10 9 8 8 9 8 7 8 8 9 10 9 9 10 9 9 9 9 8 9 9 8 7 6 6 7 8 7 8 8
Wind_Direction
145 140 141 139 147 148 163 163 164 166 168 169 167 164 160 158 155 153 152 153 152 141 132 145 142 147 140 135 142 141 140 134 132 133 138 139 139 137 131 123 115 109 105 93 82 78 85 105 115 114 112 110 108 104 107 106 105 98 87 89 105 116
141 142 141 140 143 147 159 161 157 163 165 169 170 168 164 163 158 154 156 154 135 140 134 127 150 147 132 145 145 147 144 140 136 140 145 145 144 141 135 129 122 115 107 94 77 70 77 103 118 115 113 110 105 109 110 108 109 106 95 94 100 104
139 141 141 142 146 150 154 149 155 157 162 165 173 170 168 170 160 160 152 133 140 133 138 145 155 149 153 149 150 150 147 143 143 148 151 152 149 147 141 135 127 118 112 97 75 65 79 90 117 115 109 105 108 111 113 110 108 109 109 116 119 119
139 139 140 143 147 151 151 154 156 154 163 163 172 165 174 173 171 165 141 139 141 146 142 150 168 162 154 144 151 150 149 147 149 154 158 154 154 151 149 138 127 120 109 94 70 65 84 96 113 112 109 110 113 116 115 117 115 114 116 118 120 121
134 137 137 143 148 149 148 152 157 160 160 163 165 159 172 178 182 162 145 146 151 149 145 166 175 145 116 146 124 128 135 128 128 148 163 151 175 174 142 130 119 110 116 107 87 91 93 107 120 120 118 119 120 120 115 116 118 111 107 111 119 120
127 131 133 135 142 149 148 156 159 161 157 164 162 166 173 177 182 168 153 155 158 149 159 177 170 138 157 154 150 144 140 133 140 168 158 203 223 177 191 165 142 136 136 116 117 156 116 110 127 124 121 122 122 121 120 121 119 115 113 117 119 124
140 143 140 134 136 147 155 155 160 160 160 170 162 169 181 184 188 176 168 170 168 166 170 182 167 164 168 171 170 172 161 156 163 180 174 210 216 211 198 175 167 155 138 143 150 170 114 108 129 128 125 127 125 125 127 127 125 120 117 121 127 125
143 147 145 146 148 154 160 165 175 171 169 174 170 178 185 189 188 188 182 182 177 172 173 179 175 176 180 173 186 190 179 168 178 194 166 178 242 225 214 190 174 165 165 176 181 171 135 108 129 131 130 131 131 128 132 131 128 123 125 126 129 134
144 143 137 143 151 156 165 170 186 188 180 182 180 184 180 183 194 197 194 187 185 181 180 180 183 184 174 186 185 192 193 190 185 200 169 190 217 218 205 192 189 185 194 194 183 169 144 107 134 136 135 137 136 136 133 133 132 129 125 123 120 134
152 147 143 145 149 158 173 181 192 200 189 187 190 187 182 193 198 196 200 196 196 189 186 184 187 185 179 189 187 195 202 202 194 201 181 198 205 214 200 193 199 192 190 194 184 178 147 119 138 141 138 137 139 142 140 140 142 139 138 134 141 137
152 146 143 152 160 167 168 190 195 202 201 196 192 192 197 201 201 203 203 199 204 200 187 188 188 188 192 185 186 193 208 207 204 209 200 212 189 209 218 192 190 189 192 182 193 179 148 119 138 142 142 138 143 141 141 141 143 146 142 146 140 135
146 144 148 157 162 164 171 184 195 198 204 202 193 200 203 205 207 204 202 203 205 206 195 193 189 192 194 189 187 195 201 203 207 211 211 214 203 202 205 212 208 201 190 172 174 167 149 123 142 147 144 139 142 141 145 148 150 154 148 148 146 143
148 152 156 155 159 169 170 180 191 201 200 202 200 200 207 208 208 204 205 204 207 208 203 195 194 196 197 195 190 195 202 206 204 208 214 216 217 204 196 193 218 217 195 163 147 171 146 131 139 149 145 146 143 145 148 151 155 155 159 155 156 150
153 152 169 166 159 162 172 179 189 197 201 202 203 202 209 210 207 206 204 206 206 207 203 201 191 201 202 199 197 198 203 207 207 206 216 216 218 213 192 185 200 183 194 171 176 182 151 145 138 145 148 150 150 152 153 155 161 163 160 160 160 156
168 156 160 182 173 166 172 176 183 192 199 203 203 205 209 210 209 206 202 208 206 206 202 202 196 192 204 207 203 200 207 210 202 204 208 219 213 217 179 192 179 177 181 178 176 183 159 152 146 149 154 153 156 153 154 159 160 161 167 165 160 162
178 166 167 168 189 175 169 175 181 186 197 203 204 205 209 210 209 205 202 207 207 204 202 201 199 193 198 207 209 203 208 209 202 199 207 218 214 212 169 178 178 163 166 176 174 180 158 150 154 144 151 157 156 158 159 160 164 166 171 161 166 167
182 180 169 168 172 190 172 168 172 185 194 200 204 205 206 207 209 203 201 208 206 200 199 199 201 194 196 202 209 206 208 207 196 197 205 210 211 207 149 166 176 176 163 172 176 164 163 150 155 152 145 158 161 161 163 169 170 169 163 170 171 175
183 199 175 163 164 174 185 165 169 181 193 200 207 204 199 202 208 202 197 205 205 197 197 196 200 196 194 201 200 202 200 201 191 191 198 198 207 195 155 156 170 189 170 164 172 166 160 153 151 151 142 150 164 165 170 171 173 167 170 173 178 180
177 197 225 166 156 155 161 153 153 169 193 209 213 209 198 199 203 199 197 195 196 197 193 197 195 194 194 200 200 197 192 188 185 181 186 191 198 187 167 166 161 188 191 175 167 172 161 153 151 150 153 153 155 172 171 173 172 171 179 182 179 180
175 177 175 253 151 143 134 137 139 151 198 215 216 218 214 203 195 198 196 190 192 195 195 194 195 188 192 201 200 201 193 182 185 173 183 189 196 187 186 170 178 174 181 203 189 156 147 138 124 136 145 143 157 157 170 175 177 182 182 182 184 170
175 171 168 182 192 155 152 137 127 156 195 207 212 214 215 208 199 200 195 192 191 195 197 196 193 183 192 203 202 200 196 191 183 181 186 197 191 187 186 181 181 195 163 164 192 164 156 135 126 71 41 111 100 189 171 169 183 184 187 187 181 179
173 178 178 179 188 181 165 170 176 184 176 200 214 217 218 212 204 198 198 195 195 196 199 199 194 186 190 200 202 200 198 194 185 190 192 194 189 182 181 188 175 206 179 163 177 174 161 128 143 154 151 115 36 348 175 184 184 198 189 187 183 180
177 177 185 185 182 180 155 144 149 168 179 194 211 217 227 221 182 185 204 203 197 200 201 202 199 194 194 203 208 197 202 194 190 181 183 197 195 190 190 191 187 194 174 210 157 180 173 167 150 144 113 114 194 195 268 289 255 217 199 190 179 181
180 180 179 189 193 185 168 168 170 174 171 175 196 194 201 157 174 173 202 206 206 201 200 200 200 205 204 203 204 206 197 199 197 186 185 193 202 199 193 197 195 212 161 183 189 191 193 168 140 138 155 195 146 205 228 229 212 238 202 185 178 180
179 182 187 182 182 199 174 152 147 155 145 131 122 147 154 210 205 197 192 203 210 201 198 198 201 206 208 209 205 206 201 201 200 196 190 196 202 204 198 199 192 202 196 178 199 176 208 184 171 169 140 116 121 209 232 231 168 263 227 218 206 179
181 184 187 189 168 173 194 164 159 162 167 169 180 171 193 205 207 204 203 205 201 196 198 199 200 204 207 206 211 203 206 200 207 204 199 201 201 198 200 201 201 198 208 202 171 184 191 222 201 196 179 173 161 176 192 196 162 229 263 266 237 202
180 185 184 180 177 177 203 187 172 172 171 177 183 199 205 212 215 222 226 193 196 199 200 200 205 203 205 207 208 203 204 209 209 210 205 199 202 202 202 206 198 202 204 187 173 189 193 192 197 255 231 196 180 149 139 136 200 67 208 244 262 222
182 183 183 178 184 184 185 208 183 168 166 171 183 196 202 227 274 271 245 230 197 193 198 205 207 206 204 204 205 207 205 208 212 211 204 205 203 202 198 204 201 209 193 185 191 190 194 184 188 209 218 235 221 87 166 130 157 179 159 183 224 269
185 186 184 182 183 181 174 174 182 155 145 134 138 86 31 25 311 294 278 269 225 207 203 211 213 208 205 202 203 206 206 210 211 211 209 207 204 197 197 196 198 202 203 197 194 191 179 197 195 198 182 247 262 160 181 228 173 129 136 170 251 213
188 188 188 185 182 179 170 162 156 144 124 115 96 84 67 25 346 324 285 270 254 221 213 216 215 213 209 204 203 204 207 211 212 210 209 208 202 198 200 201 200 201 204 198 195 190 194 193 196 191 191 174 192 184 196 232 192 212 350 143 169 203
176 166 178 181 179 179 171 167 161 158 155 152 136 127 114 93 73 10 308 290 260 234 220 221 213 215 215 210 208 206 208 211 210 210 209 208 202 200 200 201 201 200 207 203 190 197 204 196 189 191 193 186 197 185 190 195 203 203 167 158 85 228
156 142 113 114 133 132 138 155 163 166 168 175 167 164 163 164 134 120 79 318 307 304 270 239 221 220 218 215 213 213 211 211 212 209 211 208 204 200 198 197 197 199 207 210 195 189 197 205 199 200 198 195 201 191 198 203 196 192 200 206 179 196
80 50 42 21 9 6 75 125 150 151 133 117 132 158 172 148 144 132 100 61 353 280 287 286 252 232 233 223 223 223 217 218 219 214 214 210 208 199 195 194 195 198 203 205 201 193 199 208 202 200 205 196 196 199 208 200 178 193 210 184 177 189
36 134 145 160 185 201 202 172 175 163 152 148 149 150 149 149 167 144 132 124 139 249 222 235 266 271 258 258 246 249 251 253 253 243 227 221 211 203 196 197 195 198 203 204 202 202 205 210 210 211 194 196 203 203 213 204 197 187 196 181 201 203
294 229 196 190 183 191 189 183 187 185 171 175 175 176 177 162 155 145 136 138 146 185 280 266 228 221 212 203 211 215 225 238 242 246 242 234 224 212 203 201 202 202 203 201 206 206 208 204 209 206 201 203 205 204 209 206 195 205 192 199 196 186
235 293 275 203 209 200 194 186 180 186 197 191 188 183 170 162 164 165 159 156 158 177 243 254 259 245 215 200 199 200 201 215 220 224 230 233 229 222 213 207 208 204 208 203 206 211 214 206 214 212 207 205 200 215 209 204 199 202 200 199 196 181
211 247 249 215 226 243 245 217 201 194 196 200 203 199 190 185 175 183 182 174 174 193 211 215 224 224 214 208 206 202 205 209 212 214 216 221 225 225 220 217 214 210 211 207 205 212 213 212 216 212 214 204 209 214 215 204 205 205 205 201 199 189